Location: Unspecified
(0.0000°N, 0.0000°E)
Time: 17:35:31
(UTC+00:00)

USA 72 - Visible Passes

Search period start: 28 May 2023 00:00
Search period end: 07 June 2023 00:00
Orbit: 2589 x 11657 km, 63.3° (Epoch: 12 May)

Date Brightness Start Highest point End Pass type
(mag) Time Alt. Az. Time Alt. Az. Time Alt. Az.
28 May 8.9 02:10:58 13° SSE 02:27:33 38° E 03:07:02 10° NE visible
28 May 9.3 18:04:19 10° NW 18:39:15 28° W 18:56:53 10° SSW visible
29 May 8.7 04:13:07 12° SSW 04:32:52 80° WNW 05:30:05 10° NNE visible
30 May 8.8 01:54:55 16° SSE 02:09:47 36° E 02:47:41 10° NE visible
30 May 9.2 17:44:29 10° NW 18:21:30 30° W 18:39:35 10° SSW visible
31 May 8.6 03:57:02 18° SSW 04:14:49 84° WNW 05:11:37 10° NNE visible
01 Jun 8.8 01:38:49 19° SSE 01:52:02 33° E 02:28:14 10° NE visible
01 Jun 9.2 17:24:47 10° NW 18:03:45 32° W 18:22:12 10° SSW visible
02 Jun 8.4 03:40:56 25° SSW 03:56:48 87° WNW 04:53:08 10° NNE visible
03 Jun 8.8 01:22:41 21° SE 01:34:17 31° E 02:08:41 10° NE visible
04 Jun 8.3 03:24:47 32° SSW 03:38:47 90° ESE 04:34:37 10° NNE visible
05 Jun 8.9 01:06:32 22° SE 01:16:31 28° E 01:49:01 10° NE visible
05 Jun 8.8 05:28:28 10° WSW 05:51:06 37° WNW 06:47:28 10° N visible
06 Jun 8.2 03:08:37 39° SSW 03:20:49 86° ESE 04:16:04 10° NNE visible
